VIR3N EGLL-KJFK

Flight info

Callsign VIR3N
Flight time N/A
Altitude 36000
Route CPT L9 BUCGO DCT FELCA DCT OFSOX DCT SLANY DCT TOBOR/M085F380 DCT 5230N02000W 5130N03000W 5030N04000W 4930N05000W DCT IBERG/N0479F380 N364A TUSKY DCT PLYMM PARCH4
Aircraft A35K/H-SDE2E3GHIJ3J4J5LM1ORWXY/LB1D1

Departure

Time N/A
Airport London Heathrow Airport (EGLL)

Arrival

Time 2026-04-30 13:19
Airport John F. Kennedy International Airport (KJFK)
Time Latitude Longitude Altitude Speed Heading
2026-04-30 11:57 45.13412 -63.45168 38134 ft 471 kts 239°
2026-04-30 11:57 45.10115 -63.53097 38120 ft 471 kts 239°
2026-04-30 11:58 45.06787 -63.61076 38128 ft 470 kts 239°
2026-04-30 11:58 45.03461 -63.69027 38118 ft 470 kts 239°
2026-04-30 11:59 45.00125 -63.76982 38115 ft 470 kts 239°
2026-04-30 11:59 44.96818 -63.84846 38119 ft 470 kts 239°
2026-04-30 12:00 44.93472 -63.92779 38109 ft 469 kts 239°
2026-04-30 12:00 44.90132 -64.00675 38107 ft 468 kts 239°
2026-04-30 12:01 44.86794 -64.08547 38095 ft 468 kts 239°
2026-04-30 12:01 44.83474 -64.16353 38094 ft 468 kts 239°
2026-04-30 12:02 44.80127 -64.24199 38081 ft 468 kts 239°
2026-04-30 12:02 44.76767 -64.32056 38092 ft 469 kts 239°
2026-04-30 12:03 44.71712 -64.43838 38087 ft 469 kts 239°
2026-04-30 12:04 44.68358 -64.51627 38090 ft 469 kts 239°
2026-04-30 12:04 44.64976 -64.59458 38088 ft 469 kts 239°
2026-04-30 12:05 44.62156 -64.65973 38086 ft 470 kts 239°
2026-04-30 12:05 44.58187 -64.75118 38077 ft 469 kts 239°
2026-04-30 12:06 44.55363 -64.81604 38072 ft 469 kts 239°
2026-04-30 12:06 44.51408 -64.90668 38076 ft 468 kts 239°
2026-04-30 12:07 44.48010 -64.98430 38076 ft 467 kts 239°
2026-04-30 12:07 44.45183 -65.04872 38068 ft 467 kts 239°
2026-04-30 12:08 44.41775 -65.12618 38068 ft 467 kts 239°
2026-04-30 12:08 44.38363 -65.20356 38069 ft 466 kts 239°
2026-04-30 12:09 44.34958 -65.28053 38064 ft 465 kts 239°
2026-04-30 12:09 44.31574 -65.35684 38059 ft 465 kts 239°
2026-04-30 12:10 44.28162 -65.43358 38039 ft 465 kts 238°
2026-04-30 12:10 44.24749 -65.51014 38049 ft 464 kts 238°
2026-04-30 12:11 44.21343 -65.58631 38045 ft 463 kts 238°
2026-04-30 12:11 44.17953 -65.66194 38051 ft 463 kts 238°
2026-04-30 12:12 44.14537 -65.73796 38024 ft 463 kts 238°
2026-04-30 12:12 44.11116 -65.81389 38033 ft 463 kts 238°
2026-04-30 12:13 44.07693 -65.88967 38021 ft 463 kts 238°
2026-04-30 12:13 44.04262 -65.96541 38008 ft 463 kts 238°
2026-04-30 12:14 44.00849 -66.04057 38013 ft 463 kts 238°
2026-04-30 12:14 43.97410 -66.11612 38006 ft 462 kts 237°
2026-04-30 12:15 43.93972 -66.19144 38005 ft 461 kts 237°
2026-04-30 12:15 43.90534 -66.26657 38000 ft 461 kts 237°
2026-04-30 12:16 43.87115 -66.34108 38002 ft 461 kts 237°
2026-04-30 12:16 43.83671 -66.41595 38004 ft 461 kts 237°
2026-04-30 12:17 43.78491 -66.52818 37987 ft 461 kts 237°
2026-04-30 12:17 43.75035 -66.60283 37981 ft 461 kts 237°
2026-04-30 12:18 43.71574 -66.67738 37974 ft 461 kts 237°
2026-04-30 12:18 43.68136 -66.75128 37991 ft 460 kts 237°
2026-04-30 12:19 43.64671 -66.82556 37978 ft 460 kts 237°
2026-04-30 12:19 43.61203 -66.89970 37974 ft 460 kts 237°
2026-04-30 12:20 43.57734 -66.97369 37986 ft 459 kts 236°
2026-04-30 12:20 43.54388 -67.04791 37965 ft 459 kts 240°
2026-04-30 12:21 43.51235 -67.12454 37965 ft 459 kts 239°
2026-04-30 12:21 43.48056 -67.20074 37958 ft 459 kts 239°
2026-04-30 12:22 43.44856 -67.27678 37951 ft 459 kts 239°
2026-04-30 12:22 43.41670 -67.35215 37952 ft 459 kts 239°
2026-04-30 12:23 43.38458 -67.42792 37947 ft 459 kts 239°
2026-04-30 12:23 43.35238 -67.50367 37952 ft 459 kts 239°
2026-04-30 12:24 43.32013 -67.57930 37940 ft 459 kts 239°
2026-04-30 12:24 43.28780 -67.65496 37938 ft 459 kts 239°
2026-04-30 12:25 43.25564 -67.72999 37932 ft 459 kts 239°
2026-04-30 12:25 43.22320 -67.80551 37944 ft 459 kts 239°
2026-04-30 12:26 43.19070 -67.88093 37927 ft 459 kts 239°
2026-04-30 12:26 43.15815 -67.95631 37930 ft 460 kts 238°
2026-04-30 12:27 43.12573 -68.03120 37920 ft 461 kts 238°
2026-04-30 12:27 43.09299 -68.10662 37918 ft 461 kts 238°
2026-04-30 12:28 43.06019 -68.18198 37902 ft 461 kts 238°
2026-04-30 12:28 43.02729 -68.25738 37906 ft 462 kts 238°
2026-04-30 12:29 42.99451 -68.33231 37896 ft 462 kts 238°
2026-04-30 12:29 42.96145 -68.40769 37893 ft 463 kts 238°
2026-04-30 12:30 42.92837 -68.48292 37901 ft 462 kts 238°
2026-04-30 12:30 42.89520 -68.55814 37892 ft 462 kts 238°
2026-04-30 12:31 42.86225 -68.63271 37888 ft 462 kts 238°
2026-04-30 12:31 42.82907 -68.70759 37889 ft 462 kts 238°
2026-04-30 12:32 42.79579 -68.78250 37881 ft 462 kts 238°
2026-04-30 12:32 42.76244 -68.85739 37877 ft 462 kts 238°
2026-04-30 12:33 42.72911 -68.93205 37880 ft 461 kts 238°
2026-04-30 12:33 42.69598 -69.00605 37879 ft 461 kts 238°
2026-04-30 12:34 42.66264 -69.08037 37873 ft 461 kts 238°
2026-04-30 12:34 42.62924 -69.15459 37872 ft 460 kts 238°
2026-04-30 12:35 42.59589 -69.22856 37876 ft 459 kts 238°
2026-04-30 12:35 42.56272 -69.30190 37868 ft 459 kts 238°
2026-04-30 12:36 42.52933 -69.37557 37868 ft 459 kts 238°
2026-04-30 12:36 42.49588 -69.44919 37863 ft 457 kts 238°
2026-04-30 12:37 42.46252 -69.52242 37863 ft 457 kts 238°
2026-04-30 12:37 42.42930 -69.59517 37860 ft 457 kts 238°
2026-04-30 12:38 42.39585 -69.66824 37851 ft 457 kts 238°
2026-04-30 12:38 42.36234 -69.74127 37854 ft 456 kts 238°
2026-04-30 12:39 42.32905 -69.81364 37854 ft 456 kts 238°
2026-04-30 12:39 42.29918 -69.87844 37867 ft 456 kts 238°
2026-04-30 12:40 42.26585 -69.95057 37851 ft 456 kts 238°
2026-04-30 12:40 42.23226 -70.02307 37849 ft 456 kts 238°
2026-04-30 12:41 42.19855 -70.09568 37845 ft 456 kts 238°
2026-04-30 12:41 42.16485 -70.16807 37863 ft 456 kts 238°
2026-04-30 12:42 42.13135 -70.23987 37862 ft 456 kts 238°
2026-04-30 12:42 42.09757 -70.31208 37852 ft 455 kts 238°
2026-04-30 12:43 42.06388 -70.38395 37857 ft 454 kts 238°
2026-04-30 12:43 42.03374 -70.45842 37862 ft 453 kts 246°
2026-04-30 12:44 42.00942 -70.53593 37864 ft 453 kts 247°
2026-04-30 12:44 41.98501 -70.61392 37859 ft 452 kts 247°
2026-04-30 12:45 41.96053 -70.69166 37858 ft 451 kts 247°
2026-04-30 12:45 41.93607 -70.76905 37859 ft 450 kts 247°
2026-04-30 12:46 41.91159 -70.84626 37860 ft 449 kts 247°
2026-04-30 12:46 41.88723 -70.92288 37864 ft 448 kts 247°
2026-04-30 12:47 41.86274 -70.99967 37861 ft 448 kts 246°
2026-04-30 12:47 41.83821 -71.07635 37840 ft 447 kts 247°
2026-04-30 12:48 41.81373 -71.15268 37858 ft 444 kts 247°
2026-04-30 12:48 41.78941 -71.22830 37853 ft 444 kts 247°
2026-04-30 12:49 41.76502 -71.30391 37629 ft 440 kts 246°
2026-04-30 12:49 41.75287 -71.34152 37362 ft 439 kts 246°
2026-04-30 12:49 41.74064 -71.37865 37089 ft 439 kts 245°
2026-04-30 12:50 41.72571 -71.41450 36833 ft 439 kts 237°
2026-04-30 12:50 41.70684 -71.44665 36567 ft 440 kts 229°
2026-04-30 12:50 41.68444 -71.47477 36291 ft 441 kts 223°
2026-04-30 12:50 41.66089 -71.50110 36044 ft 441 kts 222°
2026-04-30 12:51 41.63759 -71.52688 35789 ft 441 kts 222°
2026-04-30 12:51 41.61406 -71.55298 35538 ft 440 kts 223°
2026-04-30 12:51 41.59057 -71.57905 35308 ft 438 kts 222°
2026-04-30 12:51 41.56720 -71.60501 35066 ft 435 kts 222°
2026-04-30 12:52 41.54418 -71.63058 34819 ft 433 kts 223°
2026-04-30 12:52 41.52099 -71.65632 34563 ft 429 kts 223°
2026-04-30 12:52 41.49818 -71.68161 34227 ft 422 kts 223°
2026-04-30 12:52 41.47573 -71.70649 33802 ft 417 kts 223°
2026-04-30 12:53 41.45357 -71.73105 33271 ft 413 kts 223°
2026-04-30 12:53 41.43194 -71.75500 32778 ft 408 kts 223°
2026-04-30 12:53 41.41020 -71.77905 32306 ft 403 kts 223°
2026-04-30 12:53 41.38870 -71.80281 31840 ft 399 kts 223°
2026-04-30 12:54 41.36751 -71.82621 31369 ft 395 kts 222°
2026-04-30 12:54 41.34646 -71.84943 30896 ft 391 kts 222°
2026-04-30 12:54 41.32557 -71.87247 30444 ft 387 kts 222°
2026-04-30 12:54 41.30496 -71.89516 29985 ft 384 kts 222°
2026-04-30 12:55 41.28475 -71.91740 29523 ft 380 kts 221°
2026-04-30 12:55 41.26432 -71.93995 29051 ft 375 kts 221°
2026-04-30 12:55 41.24459 -71.96160 28612 ft 370 kts 221°
2026-04-30 12:55 41.22480 -71.98328 28182 ft 365 kts 221°
2026-04-30 12:56 41.20532 -72.00463 27751 ft 361 kts 221°
2026-04-30 12:56 41.18609 -72.02568 27311 ft 356 kts 222°
2026-04-30 12:56 41.16709 -72.04647 26913 ft 352 kts 222°
2026-04-30 12:56 41.14834 -72.06699 26506 ft 349 kts 222°
2026-04-30 12:57 41.12969 -72.08739 26087 ft 346 kts 222°
2026-04-30 12:57 41.11180 -72.10868 25670 ft 343 kts 228°
2026-04-30 12:57 41.09777 -72.13385 25255 ft 340 kts 241°
2026-04-30 12:57 41.08855 -72.16258 24840 ft 339 kts 249°
2026-04-30 12:58 41.08121 -72.19214 24428 ft 338 kts 250°
2026-04-30 12:58 41.07413 -72.22134 24005 ft 336 kts 250°
2026-04-30 12:58 41.06697 -72.25068 23595 ft 335 kts 250°
2026-04-30 12:58 41.05977 -72.27991 23139 ft 333 kts 249°
2026-04-30 12:59 41.05259 -72.30895 22688 ft 330 kts 249°
2026-04-30 12:59 41.04545 -72.33773 22281 ft 328 kts 249°
2026-04-30 12:59 41.03831 -72.36642 21856 ft 327 kts 249°
2026-04-30 12:59 41.03119 -72.39498 21443 ft 325 kts 249°
2026-04-30 13:00 41.02423 -72.42290 21026 ft 322 kts 249°
2026-04-30 13:00 41.01721 -72.45097 20615 ft 321 kts 249°
2026-04-30 13:00 41.01022 -72.47892 20199 ft 319 kts 249°
2026-04-30 13:00 41.00323 -72.50681 19781 ft 318 kts 249°
2026-04-30 13:01 40.99628 -72.53452 19372 ft 317 kts 249°
2026-04-30 13:01 40.98935 -72.56216 18961 ft 316 kts 249°
2026-04-30 13:01 40.98243 -72.58966 18551 ft 315 kts 249°
2026-04-30 13:01 40.97552 -72.61712 18145 ft 314 kts 250°
2026-04-30 13:02 40.96863 -72.64447 17685 ft 311 kts 250°
2026-04-30 13:02 40.96189 -72.67119 17285 ft 309 kts 250°
2026-04-30 13:02 40.95510 -72.69812 16866 ft 308 kts 250°
2026-04-30 13:02 40.94832 -72.72493 16579 ft 308 kts 250°
2026-04-30 13:03 40.94153 -72.75178 16207 ft 306 kts 250°
2026-04-30 13:03 40.93433 -72.77811 15791 ft 304 kts 245°
2026-04-30 13:03 40.92333 -72.80174 15405 ft 302 kts 230°
2026-04-30 13:03 40.90782 -72.82035 14989 ft 301 kts 218°
2026-04-30 13:04 40.89094 -72.83662 14594 ft 300 kts 217°
2026-04-30 13:04 40.87395 -72.85268 14202 ft 300 kts 217°
2026-04-30 13:04 40.85727 -72.86851 13807 ft 298 kts 218°
2026-04-30 13:04 40.84028 -72.88469 13395 ft 297 kts 218°
2026-04-30 13:05 40.82381 -72.90043 12975 ft 295 kts 217°
2026-04-30 13:05 40.80722 -72.91629 12583 ft 293 kts 217°
2026-04-30 13:05 40.79077 -72.93201 12193 ft 292 kts 217°
2026-04-30 13:06 40.75690 -72.96440 11393 ft 301 kts 217°
2026-04-30 13:06 40.74010 -72.98044 10979 ft 296 kts 217°
2026-04-30 13:06 40.72374 -72.99605 10756 ft 284 kts 217°
2026-04-30 13:06 40.70812 -73.01100 10608 ft 271 kts 218°
2026-04-30 13:07 40.69501 -73.02741 10480 ft 257 kts 233°
2026-04-30 13:07 40.68725 -73.04795 10329 ft 248 kts 252°
2026-04-30 13:07 40.68524 -73.07032 10070 ft 248 kts 265°
2026-04-30 13:07 40.68536 -73.09326 9776 ft 256 kts 266°
2026-04-30 13:08 40.68565 -73.11722 9683 ft 266 kts 266°
2026-04-30 13:08 40.68591 -73.14147 9348 ft 264 kts 266°
2026-04-30 13:08 40.68610 -73.16574 8831 ft 266 kts 267°
2026-04-30 13:08 40.68626 -73.19018 8464 ft 266 kts 267°
2026-04-30 13:09 40.68640 -73.21422 8147 ft 265 kts 267°
2026-04-30 13:09 40.68655 -73.23853 7697 ft 266 kts 268°
2026-04-30 13:09 40.68970 -73.26261 7201 ft 271 kts 287°
2026-04-30 13:09 40.69776 -73.28514 6723 ft 274 kts 294°
2026-04-30 13:10 40.70682 -73.30735 6225 ft 275 kts 296°
2026-04-30 13:10 40.71574 -73.32956 5735 ft 274 kts 295°
2026-04-30 13:10 40.72443 -73.35179 5360 ft 269 kts 295°
2026-04-30 13:10 40.73272 -73.37351 5092 ft 261 kts 295°
2026-04-30 13:11 40.74053 -73.39432 4840 ft 253 kts 295°
2026-04-30 13:11 40.74810 -73.41486 4582 ft 245 kts 295°
2026-04-30 13:11 40.75533 -73.43472 4323 ft 239 kts 295°
2026-04-30 13:11 40.76245 -73.45432 4058 ft 232 kts 295°
2026-04-30 13:12 40.76933 -73.47326 3806 ft 227 kts 295°
2026-04-30 13:12 40.77611 -73.49191 3547 ft 224 kts 295°
2026-04-30 13:12 40.78282 -73.51043 3283 ft 223 kts 295°
2026-04-30 13:13 40.79582 -73.54639 2772 ft 213 kts 295°
2026-04-30 13:13 40.80215 -73.56365 2542 ft 206 kts 295°
2026-04-30 13:13 40.81439 -73.59625 2038 ft 190 kts 294°
2026-04-30 13:14 40.81664 -73.61259 1890 ft 176 kts 262°
2026-04-30 13:14 40.81327 -73.62780 1874 ft 173 kts 249°
2026-04-30 13:14 40.79717 -73.65167 1880 ft 176 kts 225°
2026-04-30 13:15 40.78819 -73.66259 1879 ft 177 kts 222°
2026-04-30 13:15 40.76711 -73.67975 1895 ft 180 kts 211°
2026-04-30 13:15 40.75623 -73.68783 1896 ft 180 kts 211°
2026-04-30 13:16 40.74537 -73.69588 1896 ft 179 kts 212°
2026-04-30 13:16 40.73446 -73.70377 1895 ft 177 kts 210°
2026-04-30 13:16 40.72413 -73.71101 1873 ft 158 kts 211°
2026-04-30 13:17 40.70653 -73.72364 1516 ft 134 kts 210°
2026-04-30 13:17 40.69859 -73.72926 1345 ft 128 kts 210°
2026-04-30 13:17 40.68276 -73.73995 1026 ft 130 kts 205°
2026-04-30 13:18 40.67459 -73.74491 837 ft 129 kts 205°
2026-04-30 13:18 40.65900 -73.75665 405 ft 128 kts 208°
2026-04-30 13:18 40.65126 -73.76269 240 ft 130 kts 208°
2026-04-30 13:19 40.64359 -73.76878 69 ft 128 kts 209°
2026-04-30 13:19 40.63622 -73.77448 28 ft 105 kts 210°
2026-04-30 13:19 40.63186 -73.77789 33 ft 41 kts 211°
2026-04-30 13:19 40.63035 -73.77911 32 ft 21 kts 217°
2026-04-30 13:20 40.63043 -73.77996 30 ft 12 kts 296°
2026-04-30 13:20 40.63092 -73.78042 31 ft 6 kts
2026-04-30 13:20 40.63137 -73.78024 32 ft 8 kts 10°
2026-04-30 13:20 40.63254 -73.78003 33 ft 23 kts 17°
2026-04-30 13:21 40.63335 -73.77964 31 ft 10 kts 25°
2026-04-30 13:21 40.63407 -73.77907 30 ft 14 kts 32°
2026-04-30 13:21 40.63469 -73.77858 30 ft 8 kts 32°
2026-04-30 13:22 40.63677 -73.77693 30 ft 24 kts 30°
2026-04-30 13:22 40.63825 -73.77579 29 ft 27 kts 31°
2026-04-30 13:22 40.64072 -73.77448 28 ft 10 kts 319°
2026-04-30 13:23 40.64132 -73.77512 29 ft 13 kts 323°
2026-04-30 13:23 40.64246 -73.77601 29 ft 10 kts 332°
2026-04-30 13:24 40.64344 -73.77675 29 ft 6 kts 329°
2026-04-30 13:24 40.64366 -73.77776 29 ft 8 kts 257°
2026-04-30 13:25 40.64360 -73.77803 29 ft 0 kts 254°